Leadville, CO

2:59 AM MDT on October 24, 2017 (GMT -0600)
Lake County

Weather History for KLXV - May, 2014

Change the Weather History Date:

Friday, May 9, 2014

  Actual Average Record
Temperature  
Mean Temperature 34 °F -  
Max Temperature 43 °F 52 °F 64 °F (1989)
Min Temperature 24 °F 26 °F 10 °F (1978)
Degree Days  
Heating Degree Days 31 26  
Month to date heating degree days 241 249  
Since 1 July heating degree days 10127 10250  
Cooling Degree Days 0 0  
Month to date cooling degree days 0 0  
Year to date cooling degree days 0 0  
Moisture  
Dew Point 25 °F    
Average Humidity 56    
Maximum Humidity 75    
Minimum Humidity 36    
Precipitation  
Precipitation 0.12 in 0.02 in 0.32 in (2015)
Month to date precipitation 0.17 0.27  
Year to date precipitation 6.88 3.60  
Sea Level Pressure  
Sea Level Pressure 29.95 in    
Wind  
Wind Speed 8 mph (NNW)    
Max Wind Speed 23 mph    
Max Gust Speed 35 mph    
Visibility 6 miles    
Events Fog , Snow    
T = Trace of Precipitation, MM = Missing Value Source: NWS Daily Summary

Daily Weather History Graph

Daily Weather History Graph

Search for Another Location

Airport or City:

Trip Planner

Search our weather history database for the weather conditions in past years. The results will help you decide how hot, cold, wet, or windy it might be!

Date:

Astronomy

May. 09, 2014 Rise Set
Actual Time 5:57 AM MDT 8:06 PM MDT
Civil Twilight 5:28 AM MDT 8:36 PM MDT
Nautical Twilight 4:51 AM MDT 9:12 PM MDT
Astronomical Twilight 4:12 AM MDT 9:52 PM MDT
Moon 3:08 PM MDT (5/9) 2:59 AM MDT (5/9)
Length of Visible Light 15h 07m
Length of Day
14h 08m
Waxing Gibbous, 74% of the Moon is Illuminated
May 9
Waxing Gibbous
May 14
Full
May 21
Last Quarter
May 28
New
Jun 5
First Quarter

Hourly Weather History & Observations

Time (MDT) Temp. Windchill Dew Point Humidity Pressure Visibility Wind Dir Wind Speed Gust Speed Precip Events Conditions
12:22 AM 28.0 °F 20.0 °F 24.1 °F 85% 30.09 in 2.5 mi North 8.1 mph - 0.00 in Snow Light Snow
12:30 AM 27.0 °F 23.0 °F 25.0 °F 92% 30.09 in 1.0 mi Variable 3.5 mph - 0.00 in Snow Light Snow
12:39 AM 28.0 °F 22.8 °F 24.1 °F 85% 30.09 in 3.0 mi NNE 4.6 mph - 0.00 in Snow Light Snow
12:53 AM 28.0 °F 21.7 °F 23.0 °F 81% 29.87 in 3.0 mi NNE 5.8 mph - 0.00 in Snow Light Snow
1:15 AM 28.0 °F 20.0 °F 21.9 °F 78% 30.08 in 9.0 mi NNE 8.1 mph - 0.00 in   Overcast
1:53 AM 28.0 °F 20.0 °F 21.0 °F 75% 29.87 in 10.0 mi North 8.1 mph - 0.00 in   Scattered Clouds
2:53 AM 28.4 °F 20.4 °F 19.4 °F 69% 30.07 in 10.0 mi NW 8.1 mph - N/A   Mostly Cloudy
3:53 AM 28.0 °F 19.3 °F 19.0 °F 69% 29.88 in 10.0 mi NW 9.2 mph - N/A   Mostly Cloudy
4:53 AM 27.0 °F 19.5 °F 18.0 °F 69% 29.89 in 10.0 mi NNW 6.9 mph - N/A   Clear
5:53 AM 24.8 °F 16.1 °F 17.6 °F 74% 30.04 in 10.0 mi North 8.1 mph - N/A   Clear
6:53 AM 25.0 °F 17.1 °F 17.1 °F 72% 29.87 in 10.0 mi NNE 6.9 mph - N/A   Clear
7:53 AM 30.9 °F 23.5 °F 17.1 °F 57% 29.87 in 10.0 mi North 8.1 mph - N/A   Partly Cloudy
8:53 AM 33.1 °F 24.4 °F 19.0 °F 56% 29.87 in 10.0 mi NNW 11.5 mph 16.1 mph N/A   Overcast
9:53 AM 36.0 °F 28.5 °F 23.0 °F 59% 29.83 in 10.0 mi NNW 10.4 mph 19.6 mph N/A   Overcast
10:53 AM 37.9 °F 30.0 °F 21.0 °F 51% 29.79 in 10.0 mi NW 12.7 mph 26.5 mph N/A   Overcast
11:53 AM 39.9 °F 33.4 °F 19.0 °F 43% 29.78 in 10.0 mi NW 10.4 mph 24.2 mph N/A   Mostly Cloudy
12:53 PM 43.0 °F 36.0 °F 18.0 °F 37% 29.74 in 10.0 mi West 13.8 mph 20.7 mph N/A   Overcast
1:53 PM 39.9 °F 32.5 °F 23.0 °F 51% 29.76 in 10.0 mi NW 12.7 mph 18.4 mph N/A   Overcast
2:53 PM 39.0 °F 32.8 °F 25.0 °F 57% 29.77 in 10.0 mi NW 9.2 mph 18.4 mph N/A   Overcast
3:53 PM 39.0 °F 31.8 °F 26.1 °F 60% 29.75 in 10.0 mi NNW 11.5 mph 19.6 mph N/A   Overcast
4:53 PM 37.0 °F 27.7 °F 28.9 °F 73% 29.80 in 9.0 mi NW 16.1 mph 21.9 mph 0.00 in Snow Light Snow
5:28 PM 37.0 °F 27.7 °F 28.0 °F 70% 30.01 in 3.0 mi WNW 16.1 mph 23.0 mph 0.00 in Snow Light Snow
5:40 PM 39.0 °F 34.8 °F 27.0 °F 62% 30.00 in 9.0 mi NW 5.8 mph - 0.00 in   Mostly Cloudy
5:53 PM 39.9 °F 37.8 °F 25.0 °F 55% 29.78 in 10.0 mi NNW 3.5 mph 16.1 mph 0.00 in   Scattered Clouds
6:53 PM 35.1 °F 29.3 °F 26.1 °F 70% 29.84 in 10.0 mi NNW 6.9 mph - 0.00 in   Overcast
7:53 PM 33.1 °F 30.0 °F 26.1 °F 75% 29.81 in 10.0 mi Variable 3.5 mph - 0.00 in   Partly Cloudy
8:53 PM 34.0 °F 31.0 °F 25.0 °F 70% 29.79 in 10.0 mi Variable 3.5 mph - N/A   Overcast
9:03 PM 33.1 °F 23.4 °F 27.0 °F 78% 30.05 in 2.0 mi West 13.8 mph 23.0 mph 0.00 in Snow Light Snow
9:09 PM 30.9 °F 23.5 °F 28.0 °F 89% 30.05 in 0.8 mi WNW 8.1 mph 23.0 mph 0.00 in Snow Light Snow
9:18 PM 30.9 °F 27.5 °F 28.9 °F 92% 30.05 in 2.0 mi NNE 3.5 mph - 0.01 in Snow Light Snow
9:21 PM 30.9 °F 26.2 °F 28.9 °F 92% 30.05 in 5.0 mi NE 4.6 mph - 0.01 in Snow Light Snow
9:31 PM 32.0 °F 27.5 °F 28.9 °F 88% 30.06 in 4.0 mi North 4.6 mph - 0.01 in Snow Light Snow
9:39 PM 32.0 °F - 28.0 °F 85% 30.06 in 2.5 mi Calm Calm - 0.01 in Snow Light Snow
9:48 PM 32.0 °F - 28.4 °F 87% 30.07 in 7.0 mi Calm Calm - 0.01 in Snow Light Snow
9:53 PM 32.0 °F 28.7 °F 28.9 °F 88% 29.84 in 6.0 mi NNW 3.5 mph - 0.01 in Snow Light Snow
9:58 PM 32.0 °F 28.7 °F 28.9 °F 88% 30.07 in 1.5 mi North 3.5 mph - 0.00 in Snow Light Snow
10:11 PM 30.9 °F - 30.0 °F 96% 30.07 in 3.0 mi Calm Calm - 0.01 in Snow Light Snow
10:23 PM 32.0 °F 27.5 °F 30.0 °F 92% 30.08 in 1.8 mi North 4.6 mph - 0.01 in Snow Light Snow
10:26 PM 30.9 °F 27.5 °F 30.0 °F 96% 30.08 in 0.8 mi Variable 3.5 mph - 0.01 in Snow Light Snow
10:41 PM 30.0 °F 25.2 °F 28.9 °F 96% 30.07 in 1.0 mi North 4.6 mph - 0.04 in Snow Light Snow
10:45 PM 30.0 °F 25.2 °F 28.9 °F 96% 30.07 in 3.0 mi NNE 4.6 mph - 0.04 in Snow Light Snow
10:53 PM 30.0 °F 26.5 °F 28.9 °F 96% 29.83 in 9.0 mi ENE 3.5 mph - 0.04 in   Overcast
11:10 PM 30.0 °F 26.5 °F 28.0 °F 92% 30.05 in 10.0 mi ESE 3.5 mph - N/A   Overcast
11:32 PM 30.9 °F - 28.9 °F 92% 30.06 in 6.0 mi Calm Calm - 0.00 in Snow Light Snow
11:41 PM 30.9 °F 24.3 °F 28.9 °F 92% 30.07 in 2.5 mi NNW 6.9 mph - 0.00 in Snow Light Snow
11:47 PM 30.2 °F 23.4 °F 28.4 °F 93% 30.06 in 0.8 mi NNE 6.9 mph - 0.01 in Snow Light Snow
11:53 PM 30.0 °F 23.2 °F 28.9 °F 96% 29.80 in 0.5 mi NNW 6.9 mph - 0.02 in Fog , Snow Light Snow